Temperature
3 3 4 4 3 3 3 3 3 3 3 3 3 3 3 3 3 3 4 4 4 4 4 4 5 5 5 5 6 6 6 6 7 7 7 7 7 8 8 8 8 8 8
3 3 3 3 3 3 2 3 3 3 2 2 2 2 2 3 3 3 3 3 3 3 4 4 4 4 4 5 5 5 6 6 6 6 6 6 6 7 7 7 7 8 8
2 2 2 2 2 2 2 2 2 2 2 2 2 2 2 2 2 2 2 2 2 3 3 3 3 4 4 4 4 5 5 5 5 5 5 6 6 6 6 7 7 7 7
1 1 1 1 1 1 1 1 1 1 1 1 1 1 1 1 2 2 2 2 2 2 2 2 3 3 3 3 4 4 4 4 5 5 5 5 5 5 5 6 6 6 6
0 0 0 1 1 1 1 1 1 1 1 1 1 1 1 1 1 1 1 1 1 2 2 2 2 2 3 3 3 3 4 4 4 4 4 5 5 5 5 5 5 5 6
-0 -0 -0 -0 0 0 0 0 0 0 0 0 0 0 0 0 0 0 0 1 1 1 1 1 1 2 2 2 3 3 3 3 3 4 4 4 4 4 4 4 5 5 5
-1 -1 -1 -1 -1 -0 -0 -0 -0 -0 -0 -0 -0 -0 -0 -0 -0 -0 -0 -0 0 0 0 1 1 1 1 2 2 2 2 3 3 3 3 3 4 4 4 4 4 4 4
-1 -1 -1 -1 -1 -1 -1 -1 -1 -1 -1 -1 -1 -1 -1 -1 -1 -1 -1 -1 -1 -0 -0 -0 0 0 1 1 1 1 2 2 2 2 3 3 3 3 3 4 3 3 3
-2 -2 -2 -2 -2 -1 -1 -1 -1 -1 -1 -1 -1 -1 -1 -1 -1 -1 -1 -1 -1 -1 -1 -1 -0 -0 0 0 0 1 1 1 2 2 2 2 2 3 3 3 3 3 3
-2 -2 -2 -2 -2 -2 -2 -2 -1 -1 -1 -1 -2 -2 -2 -2 -2 -2 -2 -1 -1 -1 -1 -1 -1 -1 -1 -0 -0 0 0 1 1 1 1 2 2 2 2 2 3 3 3
-3 -3 -3 -3 -3 -2 -2 -2 -2 -2 -2 -2 -2 -2 -2 -2 -2 -2 -2 -2 -2 -1 -1 -1 -1 -1 -1 -1 -1 -0 -0 0 0 1 1 1 1 2 2 2 2 2 2
-3 -3 -3 -3 -3 -3 -3 -3 -3 -3 -3 -3 -3 -3 -3 -3 -2 -2 -2 -2 -2 -2 -2 -2 -1 -1 -1 -1 -1 -1 -1 -0 -0 0 1 1 1 1 1 2 2 2 2
-3 -3 -3 -4 -4 -4 -4 -4 -3 -3 -3 -3 -3 -3 -3 -3 -3 -3 -3 -2 -2 -2 -2 -2 -2 -2 -2 -2 -1 -1 -1 -1 -1 -0 0 0 1 1 1 1 1 1 1
-4 -4 -4 -4 -4 -4 -4 -4 -4 -4 -4 -4 -4 -4 -4 -4 -4 -3 -3 -3 -3 -3 -2 -2 -2 -2 -2 -2 -2 -2 -1 -1 -1 -1 -0 -0 0 0 1 1 1 1 1
-5 -5 -5 -5 -5 -5 -5 -5 -5 -5 -4 -4 -4 -4 -4 -4 -4 -4 -4 -3 -3 -3 -3 -3 -2 -2 -2 -2 -2 -2 -2 -2 -2 -1 -1 -1 -0 -0 0 0 0 0 0
-6 -6 -6 -6 -6 -6 -5 -6 -6 -5 -5 -5 -5 -5 -5 -5 -4 -4 -4 -4 -4 -3 -3 -3 -3 -3 -2 -2 -2 -2 -2 -2 -2 -2 -2 -1 -1 -1 -1 -0 -0 -0 -0
-7 -7 -7 -7 -6 -6 -6 -6 -6 -6 -6 -5 -5 -5 -5 -5 -5 -4 -4 -4 -4 -4 -4 -4 -3 -3 -2 -2 -2 -3 -3 -3 -3 -3 -2 -2 -2 -2 -2 -1 -1 -1 -1
-7 -7 -7 -7 -6 -6 -6 -6 -6 -6 -6 -6 -6 -6 -5 -5 -5 -5 -5 -5 -4 -4 -4 -4 -4 -3 -3 -3 -3 -3 -3 -3 -3 -3 -3 -2 -2 -2 -2 -2 -2 -2 -1
-8 -8 -7 -7 -7 -7 -7 -7 -7 -7 -7 -6 -6 -6 -6 -5 -5 -5 -5 -5 -5 -5 -4 -4 -4 -4 -3 -3 -3 -4 -4 -4 -4 -4 -3 -3 -3 -3 -3 -3 -3 -3 -2
-8 -8 -8 -8 -8 -8 -8 -8 -7 -7 -7 -7 -6 -6 -6 -6 -6 -6 -5 -5 -5 -5 -5 -5 -4 -4 -4 -4 -4 -4 -4 -4 -4 -4 -4 -3 -3 -3 -3 -3 -3 -3 -3
-9 -9 -8 -8 -8 -8 -8 -8 -8 -8 -7 -7 -7 -7 -7 -6 -6 -6 -6 -6 -6 -6 -6 -5 -5 -5 -5 -5 -4 -4 -5 -5 -5 -4 -4 -4 -4 -4 -4 -4 -4 -3 -3
-9 -9 -9 -9 -9 -9 -9 -9 -8 -8 -8 -7 -7 -7 -7 -7 -7 -6 -6 -6 -6 -6 -6 -6 -6 -6 -6 -5 -5 -5 -5 -5 -5 -5 -5 -4 -4 -4 -4 -4 -4 -4 -4
-10 -10 -10 -10 -10 -10 -9 -9 -9 -9 -8 -8 -7 -7 -7 -7 -7 -7 -7 -7 -7 -7 -7 -7 -7 -7 -7 -6 -6 -6 -5 -5 -5 -5 -5 -5 -5 -5 -5 -5 -5 -5 -5
-10 -10 -10 -10 -10 -10 -10 -10 -9 -9 -9 -8 -8 -8 -8 -8 -8 -8 -8 -8 -8 -8 -8 -8 -8 -8 -8 -7 -7 -6 -6 -6 -6 -6 -6 -6 -5 -5 -5 -5 -5 -5 -5
-11 -11 -11 -11 -11 -10 -10 -10 -10 -10 -9 -9 -9 -8 -8 -8 -8 -8 -8 -8 -8 -9 -9 -9 -9 -9 -8 -8 -8 -7 -7 -7 -7 -6 -6 -6 -6 -6 -6 -6 -6 -6 -6
-11 -11 -11 -11 -11 -11 -10 -10 -10 -10 -10 -10 -9 -9 -9 -9 -9 -9 -9 -9 -9 -9 -9 -9 -9 -9 -9 -9 -8 -8 -8 -7 -7 -7 -7 -7 -7 -7 -7 -7 -7 -7 -6
Wind_Speed
4 3 3 3 2 2 2 2 2 2 1 1 2 2 2 2 2 2 2 3 3 3 3 2 3 3 3 3 3 2 3 3 2 2 2 1 1 2 3 3 3 3 4
3 2 2 3 3 3 3 3 3 2 2 2 2 2 2 3 3 3 3 3 3 3 3 4 3 3 3 4 3 3 3 2 3 3 3 3 3 2 3 3 3 3 4
4 3 3 3 3 3 3 3 3 3 3 2 2 2 2 2 3 3 3 4 4 4 4 4 4 4 4 4 4 4 4 4 3 3 3 3 3 2 3 3 3 4 4
4 3 4 3 4 3 3 3 4 3 3 3 3 4 4 4 5 4 4 4 5 5 5 5 5 5 4 5 5 4 4 5 4 3 2 2 1 2 2 3 4 4 4
4 4 4 4 4 3 3 3 3 4 4 4 4 5 5 4 4 4 5 4 4 5 5 5 5 6 5 6 5 5 5 5 5 4 3 3 2 2 3 3 4 3 4
4 3 3 3 3 3 3 3 3 3 4 4 5 5 6 5 5 6 5 5 4 4 5 6 5 6 6 6 6 6 6 6 6 5 4 4 4 4 3 4 5 4 3
3 3 2 2 3 3 3 3 3 4 4 4 5 6 6 7 7 6 6 5 4 5 6 6 6 5 6 7 7 6 6 6 7 6 5 5 5 4 4 4 3 3 2
3 3 3 3 3 3 3 3 4 5 4 5 5 6 6 5 5 6 6 6 5 6 6 7 6 6 7 7 7 7 7 6 7 7 7 5 5 5 4 4 3 3 3
4 3 3 3 3 3 3 4 4 5 4 4 5 5 6 6 6 6 6 6 6 5 7 7 7 7 7 7 7 7 7 7 7 7 7 6 5 5 4 4 4 5 5
4 4 3 4 4 4 4 4 4 5 5 4 4 4 5 6 6 6 6 7 7 7 7 7 7 7 7 8 8 7 8 8 8 7 7 7 5 6 5 5 5 5 4
4 4 4 4 4 4 4 4 4 5 5 4 4 5 5 5 6 6 6 7 7 7 7 7 8 8 8 8 8 8 9 9 9 8 8 8 7 6 6 6 5 5 4
4 4 4 5 4 5 5 5 5 5 5 5 5 5 5 5 6 6 6 7 7 7 8 8 8 8 8 8 9 9 9 10 10 9 9 9 7 8 7 6 6 6 5
5 5 5 5 5 5 6 6 6 6 5 5 5 5 5 6 7 7 6 6 7 7 8 8 8 8 8 9 10 10 10 10 10 10 10 10 9 9 8 8 7 6 5
5 5 5 6 6 6 6 7 7 6 5 5 5 6 6 6 7 6 6 6 7 7 8 8 9 8 8 10 10 10 10 10 10 10 10 10 10 10 9 8 8 7 6
7 7 7 7 7 7 7 7 7 6 6 5 6 6 6 6 6 6 6 6 6 7 7 8 9 9 8 9 9 9 10 10 10 10 10 10 10 11 10 8 8 8 7
8 9 9 8 8 7 8 8 7 7 5 5 6 5 5 5 5 6 6 6 6 6 6 8 8 9 8 10 12 10 9 10 10 10 10 10 11 11 12 12 10 9 9
9 10 10 9 8 8 8 8 8 6 5 5 5 5 5 4 5 5 5 5 5 5 5 7 8 8 9 10 11 11 10 10 10 10 10 9 9 11 10 11 11 11 11
10 10 10 9 9 8 8 7 7 5 5 5 5 4 4 4 4 5 5 5 5 5 5 6 6 7 7 9 9 10 10 9 10 10 10 10 9 10 10 10 9 10 10
10 10 9 9 8 8 8 7 6 5 5 5 5 4 4 4 4 5 5 5 4 5 5 5 5 6 6 7 8 9 7 8 9 9 10 10 10 11 12 10 10 10 9
9 9 8 8 8 8 7 6 6 6 6 6 6 5 4 4 5 5 5 5 4 5 4 4 4 5 5 6 7 9 6 7 7 7 8 10 12 12 13 11 11 11 9
9 8 7 7 7 7 6 6 7 7 7 6 5 5 4 4 4 4 4 4 4 4 4 4 4 4 5 6 5 6 5 6 6 6 6 7 11 12 13 12 10 10 8
9 8 7 8 8 7 7 7 7 8 7 6 5 5 4 4 3 3 4 3 3 3 3 3 4 3 4 4 4 4 4 4 5 5 4 5 7 9 11 10 10 10 8
8 7 7 8 8 8 7 7 8 8 7 6 5 5 5 4 4 3 3 3 3 2 3 3 3 4 4 4 4 3 3 4 3 3 3 4 5 6 6 7 8 8 6
7 7 7 8 8 9 9 8 8 7 7 6 5 5 5 5 5 4 3 3 3 3 3 3 3 4 4 4 4 3 2 2 2 2 2 2 3 3 2 3 4 4 5
7 6 6 7 8 9 9 9 8 7 6 6 6 5 4 4 4 4 4 3 3 3 4 4 4 4 4 5 6 4 2 2 1 1 1 1 1 1 1 1 2 2 3
7 7 7 7 8 8 8 9 8 7 6 6 6 5 4 4 4 4 4 5 5 7 8 7 6 4 6 7 6 5 4 3 1 1 1 1 1 1 2 2 2 2 2
Wind_Direction
230 210 202 197 188 196 207 219 222 231 240 248 241 249 253 265 272 271 276 280 283 278 234 220 214 223 225 227 220 212 195 193 190 186 178 177 180 183 184 179 179 178 183
248 232 214 207 201 205 218 230 232 231 237 249 254 253 256 263 267 267 267 268 269 272 249 220 218 222 224 222 221 211 201 197 199 193 182 194 194 201 199 189 196 193 186
252 243 232 221 220 222 226 235 240 243 245 244 246 247 251 264 264 264 265 264 261 260 252 235 222 221 222 223 223 218 208 198 204 206 204 205 205 189 193 197 200 201 200
263 250 241 236 234 239 237 240 239 243 244 234 228 229 237 246 255 255 257 260 253 251 250 236 227 219 223 228 225 221 218 204 203 206 221 242 193 193 188 191 198 207 209
272 254 245 242 243 242 242 244 245 247 249 247 237 239 242 248 252 249 246 250 246 244 245 237 232 224 222 226 224 227 218 212 211 206 207 205 210 219 213 206 195 204 214
287 278 267 260 252 246 249 252 251 258 259 253 246 244 245 245 246 246 242 244 244 239 239 234 230 229 226 226 225 225 221 218 217 212 211 204 200 205 210 215 207 208 214
292 295 299 290 282 270 263 261 258 263 261 256 254 248 248 244 241 243 241 242 244 241 239 235 230 231 232 228 227 224 222 220 218 216 215 217 217 215 220 216 219 222 221
301 300 291 291 292 290 281 271 265 267 263 258 260 253 249 248 245 244 246 242 244 241 241 237 231 234 238 232 228 222 221 220 220 222 221 220 219 215 220 213 216 219 223
307 306 303 307 307 304 301 288 278 278 272 265 263 261 252 251 250 247 246 245 246 240 238 238 231 232 235 233 228 223 221 220 220 220 221 221 223 219 224 222 217 218 219
315 312 309 314 313 310 307 305 291 284 282 277 270 265 259 255 253 248 243 242 245 240 240 240 231 230 231 231 226 223 221 219 220 219 220 222 223 218 219 223 225 231 225
316 311 311 316 316 319 317 310 301 297 291 284 278 270 266 260 256 251 249 247 245 239 237 240 233 231 230 230 227 222 220 220 221 220 221 223 222 218 215 216 221 227 233
321 319 320 325 324 320 320 315 307 300 293 286 279 273 272 266 261 257 256 253 248 241 236 237 234 232 230 229 228 223 221 220 220 220 221 223 222 221 219 216 219 223 228
337 333 332 330 324 319 316 314 308 300 296 288 277 271 271 269 266 264 261 257 252 247 239 237 235 233 234 234 233 225 222 222 224 223 222 223 221 221 220 219 219 223 226
334 329 328 326 322 319 317 315 310 303 296 288 277 272 272 273 271 268 264 260 256 249 240 238 238 235 237 236 235 227 223 223 226 227 226 225 224 221 219 220 219 219 222
336 329 324 320 321 323 323 318 313 304 297 288 280 276 278 277 274 271 267 265 261 256 243 239 238 236 237 235 232 228 226 225 226 228 228 228 230 227 222 221 217 214 218
328 328 327 321 319 319 318 316 313 306 299 290 286 287 285 282 279 277 273 270 267 264 248 242 239 238 239 235 234 233 229 228 228 229 230 229 229 225 226 227 227 223 218
321 322 321 316 316 316 313 312 311 309 303 298 297 295 291 285 283 282 277 273 271 266 257 251 244 244 246 241 239 234 233 230 228 228 229 228 226 222 222 223 226 231 230
323 319 317 314 315 317 317 316 315 310 308 306 302 298 292 289 288 286 281 279 273 266 262 259 255 254 253 249 246 241 236 235 233 231 230 230 228 221 219 220 222 227 227
318 315 313 314 319 323 326 324 322 322 319 311 305 297 292 291 291 288 285 283 277 274 270 270 265 266 266 259 250 240 235 232 236 235 232 230 229 224 220 218 220 226 232
322 324 326 326 326 328 332 330 327 330 325 318 308 297 294 289 287 290 292 292 285 281 285 285 279 273 275 277 258 237 231 233 233 231 231 230 231 227 221 219 219 224 227
326 328 330 331 329 330 334 331 332 330 325 323 319 312 305 296 294 298 302 302 299 298 299 299 299 295 290 292 278 250 233 232 230 230 230 229 224 225 223 222 224 225 224
334 336 337 335 334 335 338 338 335 332 333 334 333 330 327 322 314 314 315 315 312 309 312 315 319 318 308 304 300 278 254 245 229 232 236 230 220 223 224 223 222 220 219
334 337 339 338 340 343 345 341 336 339 342 346 344 341 341 342 340 338 336 337 332 326 323 324 322 320 317 321 327 306 279 263 250 247 241 229 222 227 228 224 219 216 216
336 338 341 342 341 344 346 341 338 343 348 349 347 347 348 349 351 349 346 346 341 335 329 324 320 319 323 334 333 327 307 276 259 261 249 228 220 222 232 226 225 223 219
334 336 338 338 337 341 345 344 343 345 349 352 352 350 349 348 347 349 346 337 333 333 330 321 316 320 323 331 335 328 320 304 276 244 262 258 239 224 220 224 224 222 216
335 336 338 339 338 342 344 345 344 345 349 352 351 351 352 351 350 346 348 354 347 346 345 345 340 332 337 335 337 338 343 339 303 246 209 221 219 215 218 220 224 223 229
Height
1493 1493 1493 1494 1494 1495 1495 1496 1496 1497 1497 1496 1497 1497 1497 1497 1497 1498 1498 1499 1499 1500 1501 1502 1504 1505 1506 1507 1509 1510 1511 1513 1514 1516 1517 1519 1521 1522 1523 1525 1527 1529 1530
1489 1489 1489 1490 1490 1491 1491 1492 1492 1493 1493 1493 1493 1493 1493 1494 1494 1494 1494 1495 1496 1497 1497 1499 1500 1501 1503 1504 1505 1507 1508 1509 1511 1513 1514 1517 1519 1518 1520 1521 1523 1525 1527
1486 1486 1486 1486 1486 1487 1487 1488 1488 1489 1489 1490 1490 1490 1490 1490 1490 1490 1490 1491 1492 1493 1494 1495 1496 1498 1499 1500 1501 1503 1504 1506 1508 1509 1511 1513 1514 1515 1517 1518 1520 1521 1524
1483 1483 1482 1482 1483 1483 1484 1484 1485 1485 1485 1486 1485 1486 1485 1485 1486 1486 1486 1487 1488 1488 1489 1490 1492 1494 1495 1496 1497 1499 1501 1502 1504 1506 1507 1509 1509 1512 1513 1515 1516 1518 1520
1480 1479 1479 1479 1480 1480 1481 1481 1481 1481 1481 1481 1482 1482 1481 1482 1482 1482 1482 1483 1483 1484 1485 1486 1487 1489 1491 1492 1493 1495 1496 1498 1500 1502 1503 1505 1506 1508 1510 1511 1513 1515 1516
1477 1477 1477 1477 1477 1477 1477 1477 1477 1477 1477 1477 1477 1477 1477 1477 1478 1478 1478 1478 1479 1479 1480 1481 1483 1484 1486 1487 1489 1490 1492 1494 1496 1498 1499 1501 1502 1504 1506 1507 1509 1510 1512
1475 1474 1474 1473 1473 1473 1473 1473 1473 1473 1473 1473 1473 1473 1473 1473 1474 1474 1474 1474 1474 1475 1475 1477 1478 1479 1481 1483 1484 1486 1487 1489 1491 1493 1495 1497 1498 1500 1502 1504 1505 1507 1508
1473 1472 1471 1471 1470 1470 1470 1469 1469 1469 1469 1469 1469 1469 1469 1469 1469 1469 1469 1469 1469 1470 1471 1472 1473 1475 1476 1478 1479 1481 1483 1485 1487 1488 1490 1492 1494 1496 1498 1499 1501 1503 1504
1471 1470 1469 1469 1468 1467 1466 1466 1465 1465 1465 1464 1464 1464 1464 1465 1464 1464 1464 1464 1465 1466 1467 1467 1468 1470 1471 1473 1474 1476 1478 1480 1482 1484 1486 1488 1489 1491 1493 1495 1497 1499 1499
1470 1469 1467 1466 1465 1464 1464 1463 1462 1461 1461 1460 1460 1460 1460 1460 1460 1459 1459 1460 1460 1461 1462 1462 1463 1464 1466 1467 1469 1471 1473 1475 1477 1479 1481 1483 1485 1487 1489 1490 1492 1494 1495
1468 1467 1466 1464 1463 1462 1461 1459 1459 1458 1457 1456 1456 1455 1455 1455 1455 1455 1455 1455 1455 1456 1456 1457 1458 1459 1460 1462 1464 1466 1468 1469 1471 1473 1475 1478 1480 1481 1484 1486 1487 1489 1490
1467 1466 1464 1462 1461 1459 1458 1456 1455 1454 1453 1452 1452 1451 1451 1450 1450 1450 1450 1450 1450 1451 1451 1452 1452 1454 1455 1456 1458 1460 1462 1464 1466 1468 1470 1472 1474 1476 1479 1480 1482 1484 1485
1466 1464 1462 1460 1458 1457 1455 1453 1452 1450 1449 1448 1447 1447 1446 1445 1445 1445 1445 1445 1445 1445 1446 1446 1447 1448 1449 1451 1453 1454 1456 1458 1460 1462 1464 1466 1468 1471 1473 1475 1477 1479 1480
1465 1463 1460 1458 1456 1454 1452 1450 1449 1447 1446 1444 1443 1442 1442 1441 1440 1440 1440 1439 1439 1439 1440 1440 1441 1443 1444 1446 1447 1449 1450 1452 1454 1456 1458 1460 1462 1465 1467 1469 1471 1473 1475
1463 1461 1458 1456 1454 1452 1449 1448 1445 1444 1442 1440 1439 1438 1438 1437 1436 1435 1435 1434 1434 1434 1434 1435 1436 1437 1439 1440 1441 1443 1444 1446 1448 1450 1452 1454 1456 1459 1461 1463 1465 1467 1470
1462 1459 1456 1454 1451 1449 1446 1444 1442 1440 1438 1437 1435 1434 1433 1432 1432 1431 1430 1429 1429 1429 1429 1430 1430 1431 1433 1434 1436 1437 1439 1440 1442 1444 1445 1448 1450 1453 1455 1457 1460 1462 1464
1460 1457 1454 1451 1448 1446 1443 1441 1439 1437 1435 1433 1432 1431 1430 1429 1428 1427 1426 1425 1425 1424 1424 1425 1425 1426 1427 1428 1430 1431 1433 1435 1436 1438 1440 1442 1444 1446 1449 1451 1453 1456 1457
1458 1455 1451 1448 1445 1443 1441 1438 1436 1434 1432 1430 1428 1427 1426 1425 1425 1424 1423 1422 1421 1420 1420 1420 1420 1421 1422 1423 1424 1425 1427 1429 1430 1432 1433 1436 1438 1441 1443 1445 1447 1449 1451
1456 1453 1449 1446 1443 1440 1438 1436 1433 1431 1429 1427 1426 1424 1424 1423 1422 1420 1419 1419 1418 1417 1417 1416 1415 1415 1416 1417 1418 1420 1421 1422 1424 1426 1427 1429 1432 1434 1437 1439 1441 1442 1444
1454 1451 1447 1444 1441 1438 1436 1433 1430 1428 1426 1424 1423 1422 1421 1420 1419 1418 1417 1416 1415 1414 1413 1412 1412 1411 1412 1412 1413 1414 1416 1417 1418 1420 1421 1423 1425 1428 1431 1433 1435 1436 1438
1452 1449 1445 1442 1439 1436 1434 1431 1428 1425 1423 1421 1420 1419 1418 1418 1417 1416 1415 1413 1412 1411 1409 1409 1408 1408 1407 1408 1408 1409 1410 1411 1412 1413 1415 1417 1420 1422 1424 1426 1429 1430 1433
1450 1447 1443 1440 1438 1435 1432 1429 1426 1424 1422 1419 1418 1417 1416 1415 1414 1413 1412 1411 1409 1408 1407 1406 1405 1405 1405 1404 1404 1405 1405 1406 1407 1408 1410 1412 1414 1416 1418 1420 1422 1425 1428
1448 1446 1442 1439 1437 1434 1431 1427 1425 1423 1420 1418 1417 1416 1415 1413 1412 1411 1410 1408 1407 1406 1405 1404 1403 1403 1402 1402 1401 1401 1401 1402 1402 1404 1406 1407 1409 1410 1412 1414 1417 1419 1422
1447 1444 1441 1438 1435 1433 1430 1427 1424 1422 1419 1417 1415 1414 1413 1412 1411 1409 1408 1407 1406 1405 1404 1403 1402 1401 1400 1399 1399 1398 1398 1398 1399 1400 1402 1403 1404 1406 1407 1409 1411 1413 1415
1447 1444 1441 1438 1435 1433 1430 1427 1425 1422 1419 1417 1415 1414 1413 1411 1410 1408 1407 1406 1405 1404 1403 1401 1401 1399 1398 1398 1398 1397 1396 1396 1397 1397 1398 1399 1400 1401 1403 1405 1406 1408 1410
1446 1443 1440 1437 1435 1432 1430 1427 1425 1422 1420 1417 1415 1414 1412 1410 1409 1408 1407 1405 1404 1403 1402 1400 1399 1398 1398 1397 1395 1395 1394 1394 1395 1395 1394 1395 1396 1397 1399 1401 1402 1404 1406